Monticello, KY

12:35 PM EST on February 23, 2017 (GMT -0500)
Wayne County

Weather History for KEKQ - December, 2012

Change the Weather History Date:

Thursday, December 6, 2012

  Actual Average Record
Temperature  
Mean Temperature 42 °F -  
Max Temperature 54 °F 50 °F 72 °F (1956)
Min Temperature 30 °F 29 °F 13 °F (2008)
Degree Days  
Heating Degree Days 24    
Moisture  
Dew Point 41 °F    
Average Humidity 91    
Maximum Humidity 100    
Minimum Humidity 77    
Precipitation  
Precipitation 0.00 in - - ()
Sea Level Pressure  
Sea Level Pressure 30.17 in    
Wind  
Wind Speed 1 mph (SE)    
Max Wind Speed 7 mph    
Max Gust Speed -    
Visibility 8 miles    
Events Rain    
Averages and records for this station are not official NWS values.
T = Trace of Precipitation, MM = Missing Value Source: NWS Daily Summary

Daily Weather History Graph

Daily Weather History Graph

Search for Another Location

Airport or City:

Trip Planner

Search our weather history database for the weather conditions in past years. The results will help you decide how hot, cold, wet, or windy it might be!

Date:

Astronomy

Dec. 06, 2012 Rise Set
Actual Time 6:38 AM CST 4:22 PM CST
Civil Twilight 6:09 AM CST 4:51 PM CST
Nautical Twilight 5:37 AM CST 5:23 PM CST
Astronomical Twilight 5:06 AM CST 5:55 PM CST
Moon No Moon Rise 11:39 AM CST (12/6)
Length of Visible Light 10h 41m
Length of Day
9h 44m
Waning Gibbous, 49% of the Moon is Illuminated
Dec 6
Waning Gibbous
Dec 13
New
Dec 19
First Quarter
Dec 28
Full
Jan 4
Last Quarter

Hourly Weather History & Observations

Time (CST) Temp. Dew Point Humidity Pressure Visibility Wind Dir Wind Speed Gust Speed Precip Events Conditions
12:56 AM 32.0 °F 31.1 °F 96% 30.22 in 10.0 mi Calm Calm - N/A   Clear
1:56 AM 30.0 °F 29.1 °F 96% 30.22 in 10.0 mi Calm Calm - N/A   Clear
2:56 AM 32.9 °F 32.0 °F 96% 30.20 in 10.0 mi Calm Calm - N/A   Clear
3:56 AM 34.9 °F 32.9 °F 92% 30.19 in 10.0 mi Calm Calm - N/A   Clear
4:56 AM 32.0 °F 31.1 °F 96% 30.20 in 10.0 mi Calm Calm - N/A   Clear
5:56 AM 32.0 °F 32.0 °F 100% 30.21 in 10.0 mi Calm Calm - N/A   Mostly Cloudy
6:56 AM 34.0 °F 32.9 °F 96% 30.21 in 10.0 mi Calm Calm - N/A   Overcast
7:56 AM 39.9 °F 36.9 °F 89% 30.20 in 10.0 mi Calm Calm - 0.00 in   Overcast
8:47 AM 42.8 °F 37.4 °F 81% 30.16 in 10.0 mi Calm Calm - N/A   Overcast
8:56 AM 41.9 °F 38.8 °F 89% 30.20 in 10.0 mi Calm Calm - N/A   Overcast
9:16 AM 44.6 °F 39.2 °F 81% 30.16 in 10.0 mi Calm Calm - N/A   Overcast
9:56 AM 45.0 °F 41.0 °F 86% 30.19 in 10.0 mi Calm Calm - N/A   Overcast
10:56 AM 52.0 °F 45.9 °F 80% 30.16 in 10.0 mi Calm Calm - N/A   Overcast
11:17 AM 53.6 °F 46.4 °F 77% 30.12 in 10.0 mi SE 4.6 mph - N/A   Overcast
11:56 AM 52.9 °F 50.0 °F 90% 30.14 in 2.0 mi SSE 6.9 mph - 0.00 in Rain Light Rain
12:05 PM 51.8 °F 51.8 °F 100% 30.11 in 4.0 mi SSE 5.8 mph - 0.00 in Rain Light Rain
12:15 PM 53.6 °F 51.8 °F 94% 30.10 in 2.0 mi SE 4.6 mph - 0.00 in Rain Light Rain
12:24 PM 53.6 °F 51.8 °F 94% 30.10 in 6.0 mi Calm Calm - 0.00 in Rain Light Rain
12:56 PM 52.9 °F 50.9 °F 93% 30.12 in 10.0 mi Calm Calm - 0.00 in   Mostly Cloudy
1:56 PM 54.0 °F 50.0 °F 86% 30.10 in 5.0 mi SE 4.6 mph - 0.00 in Rain Light Rain
2:56 PM - - N/A% - - North - - N/A   Unknown
3:56 PM - - N/A% - - North - - N/A   Unknown
4:56 PM - - N/A% - - North - - N/A   Unknown
6:56 PM - - N/A% - - North - - N/A   Unknown
7:56 PM - - N/A% - - North - - N/A   Unknown
8:56 PM - - N/A% - - North - - N/A   Unknown
9:56 PM - - N/A% - - North - - N/A   Unknown
10:56 PM - - N/A% - - North - - N/A   Unknown
11:56 PM - - N/A% - - North - - N/A   Unknown